Location: S�tio Afonso Gruber
(26.1760°S, 49.5250°W)
Time: 20:42:51
(UTC+00:00)

Cosmos 2016 Rocket - Pass Details

Date: 06 October 2020
Orbit: 946 x 1001 km, 83.0° (Epoch: 27 October)

Event Time Altitude Azimuth Distance (km) Brightness Sun altitude
Exits shadow 05:44:16 - 45° (NE) 3,546 7.0 -40.4°
Reaches altitude 10° 05:47:50 10° 68° (ENE) 2,722 6.6 -39.8°
Maximum altitude 05:50:44 14° 96° (E) 2,480 6.6 -39.2°
Drops below altitude 10° 05:53:38 10° 124° (SE) 2,754 7.1 -38.7°
Sets 05:57:37 0° 148° (SSE) 3,723 7.8 -37.9°
